Temp
-13 -13 -13 -13 -12 -12 -12 -11 -12 -12 -12 -12 -12 -12 -12 -12 -12 -12 -12 -12 -13 -12 -12 -13 -12 -12 -12 -12 -12 -13 -13 -13 -13 -14 -14 -14 -15 -16 -16 -17 -17 -17 -17
-13 -13 -13 -13 -13 -12 -12 -12 -12 -13 -13 -13 -13 -13 -13 -13 -13 -13 -13 -13 -12 -13 -13 -13 -13 -13 -13 -13 -13 -13 -13 -13 -14 -14 -15 -15 -15 -16 -16 -17 -16 -16 -16
-13 -13 -13 -13 -13 -13 -12 -13 -13 -13 -13 -13 -13 -12 -13 -13 -13 -13 -13 -13 -13 -13 -13 -13 -13 -13 -13 -13 -13 -13 -14 -15 -14 -15 -15 -16 -16 -16 -16 -16 -16 -16 -16
-13 -13 -13 -12 -13 -13 -13 -13 -13 -13 -13 -13 -13 -13 -13 -13 -13 -12 -13 -13 -13 -14 -13 -13 -13 -13 -13 -14 -14 -13 -14 -15 -15 -15 -15 -16 -16 -16 -16 -16 -16 -15 -15
-13 -14 -13 -13 -13 -13 -13 -13 -13 -14 -14 -13 -13 -13 -13 -13 -13 -13 -13 -13 -13 -13 -13 -13 -14 -13 -14 -14 -14 -14 -14 -15 -15 -15 -15 -15 -16 -16 -16 -16 -16 -16 -15
-13 -14 -13 -13 -13 -13 -13 -13 -13 -13 -13 -13 -13 -12 -12 -13 -13 -13 -13 -13 -13 -13 -13 -14 -13 -14 -14 -14 -15 -15 -15 -15 -15 -15 -15 -16 -16 -16 -16 -16 -16 -15 -15
-14 -14 -13 -13 -13 -13 -14 -14 -13 -13 -13 -13 -13 -13 -14 -13 -14 -13 -14 -13 -14 -14 -13 -14 -14 -14 -14 -14 -15 -15 -15 -15 -15 -15 -15 -16 -16 -16 -16 -16 -16 -16 -16
-14 -14 -13 -13 -13 -13 -14 -14 -14 -13 -13 -13 -13 -13 -13 -13 -13 -14 -14 -14 -14 -14 -14 -14 -14 -14 -14 -15 -15 -15 -14 -15 -15 -15 -15 -15 -16 -16 -16 -16 -16 -15 -15
-14 -14 -13 -13 -13 -13 -13 -14 -14 -14 -14 -14 -13 -13 -13 -13 -13 -13 -13 -13 -13 -14 -14 -14 -14 -14 -14 -14 -14 -14 -15 -15 -15 -15 -15 -15 -15 -16 -16 -16 -15 -15 -15
-14 -14 -14 -14 -14 -14 -14 -14 -14 -14 -14 -14 -14 -14 -14 -14 -14 -14 -14 -14 -14 -14 -14 -14 -14 -14 -15 -15 -14 -15 -15 -15 -15 -15 -15 -15 -15 -15 -16 -16 -15 -16 -16
-14 -14 -14 -14 -14 -14 -14 -14 -14 -14 -14 -14 -14 -14 -14 -14 -14 -14 -14 -14 -14 -14 -14 -14 -14 -14 -14 -14 -14 -14 -15 -15 -15 -15 -15 -15 -15 -15 -15 -16 -16 -16 -16
-14 -14 -14 -14 -14 -14 -14 -15 -14 -14 -14 -14 -14 -14 -14 -14 -14 -14 -14 -14 -14 -14 -14 -14 -14 -14 -14 -14 -14 -14 -15 -15 -15 -15 -15 -15 -15 -15 -16 -15 -15 -15 -15
-15 -15 -14 -15 -15 -14 -14 -15 -15 -15 -15 -14 -14 -14 -14 -14 -14 -14 -14 -14 -14 -14 -14 -14 -14 -15 -14 -14 -14 -15 -15 -15 -15 -15 -15 -15 -15 -15 -15 -16 -15 -15 -15
-15 -15 -15 -14 -15 -15 -15 -15 -15 -15 -15 -15 -15 -15 -15 -15 -15 -15 -14 -14 -14 -14 -14 -14 -14 -14 -14 -14 -14 -14 -15 -15 -15 -15 -15 -15 -15 -15 -15 -15 -15 -15 -16
-16 -15 -16 -15 -15 -15 -15 -15 -15 -15 -15 -15 -15 -16 -16 -16 -15 -15 -15 -15 -15 -15 -14 -14 -14 -15 -15 -15 -14 -15 -15 -15 -15 -15 -15 -15 -15 -15 -15 -15 -16 -16 -16
-16 -15 -15 -15 -15 -16 -16 -15 -15 -16 -16 -15 -15 -16 -16 -16 -16 -16 -15 -16 -16 -15 -15 -15 -15 -15 -15 -15 -15 -15 -15 -15 -15 -15 -15 -15 -15 -15 -15 -16 -16 -16 -16
-15 -15 -16 -16 -16 -16 -16 -16 -16 -16 -16 -16 -16 -16 -16 -16 -16 -16 -16 -16 -16 -16 -16 -16 -15 -15 -15 -15 -15 -15 -15 -15 -15 -15 -15 -14 -15 -16 -15 -16 -16 -16 -16
-15 -15 -16 -16 -16 -16 -16 -16 -16 -16 -16 -16 -16 -16 -16 -16 -16 -17 -17 -17 -17 -17 -16 -16 -16 -16 -16 -16 -16 -16 -16 -16 -16 -15 -16 -16 -16 -16 -16 -16 -16 -17 -16
-16 -15 -15 -15 -16 -16 -16 -16 -16 -16 -16 -16 -17 -15 -15 -16 -16 -16 -17 -17 -17 -17 -17 -17 -17 -17 -16 -16 -16 -16 -16 -16 -16 -16 -16 -16 -16 -16 -16 -16 -16 -17 -16
-16 -16 -16 -15 -16 -16 -16 -17 -16 -16 -16 -16 -16 -16 -16 -16 -17 -17 -17 -17 -16 -16 -16 -17 -17 -17 -16 -17 -17 -17 -16 -16 -16 -16 -16 -16 -16 -16 -16 -16 -17 -17 -17
-16 -16 -16 -16 -16 -16 -16 -16 -16 -16 -16 -16 -17 -17 -17 -17 -17 -17 -17 -17 -17 -17 -16 -16 -17 -17 -17 -17 -17 -17 -17 -17 -17 -17 -17 -17 -17 -17 -17 -17 -17 -18 -17
-17 -17 -17 -16 -16 -16 -16 -15 -16 -16 -15 -16 -16 -17 -17 -17 -17 -17 -16 -16 -17 -17 -17 -16 -16 -16 -16 -16 -17 -17 -17 -18 -18 -18 -18 -17 -17 -17 -17 -17 -18 -18 -18
-16 -16 -16 -17 -17 -16 -16 -16 -16 -16 -16 -16 -16 -16 -16 -17 -16 -16 -16 -16 -17 -17 -16 -16 -16 -16 -16 -16 -16 -17 -17 -18 -18 -18 -18 -18 -18 -18 -18 -18 -18 -18 -18
-18 -17 -17 -17 -17 -18 -17 -17 -16 -16 -16 -17 -17 -17 -16 -16 -16 -16 -16 -16 -16 -16 -16 -16 -16 -16 -17 -17 -17 -17 -17 -18 -18 -18 -18 -18 -18 -17 -18 -18 -18 -18 -18
-19 -18 -18 -18 -18 -18 -18 -18 -17 -17 -17 -16 -17 -17 -17 -17 -17 -17 -17 -16 -16 -16 -16 -16 -17 -17 -16 -17 -17 -16 -17 -17 -18 -18 -18 -18 -18 -18 -18 -18 -18 -18 -18
-19 -19 -19 -19 -18 -18 -18 -18 -18 -18 -17 -17 -17 -17 -17 -17 -17 -17 -17 -17 -17 -17 -17 -17 -17 -17 -17 -17 -17 -17 -17 -17 -18 -18 -18 -18 -18 -18 -19 -19 -19 -20 -20
Height
5721 5720 5719 5717 5714 5711 5706 5706 5707 5709 5710 5711 5713 5716 5718 5721 5724 5728 5731 5734 5737 5741 5744 5746 5749 5751 5754 5758 5761 5764 5766 5768 5770 5771 5772 5773 5774 5774 5775 5777 5780 5782 5784
5719 5718 5717 5715 5714 5711 5708 5707 5707 5708 5710 5712 5714 5717 5719 5721 5722 5725 5728 5731 5735 5738 5740 5743 5745 5750 5753 5756 5758 5760 5761 5763 5764 5766 5768 5768 5770 5769 5771 5774 5776 5778 5779
5716 5716 5715 5714 5713 5711 5708 5707 5707 5709 5710 5712 5713 5716 5718 5721 5723 5726 5728 5730 5732 5735 5738 5741 5744 5747 5749 5752 5755 5756 5759 5761 5759 5762 5765 5766 5766 5769 5768 5770 5772 5773 5775
5714 5714 5714 5713 5712 5711 5709 5707 5707 5707 5710 5711 5712 5714 5715 5717 5719 5722 5725 5727 5730 5733 5736 5738 5741 5743 5745 5748 5749 5752 5755 5757 5756 5758 5761 5762 5764 5766 5767 5768 5769 5769 5770
5711 5712 5713 5712 5712 5711 5710 5709 5708 5708 5708 5709 5710 5711 5712 5714 5717 5719 5721 5724 5727 5729 5732 5734 5736 5738 5741 5743 5745 5746 5749 5751 5752 5755 5757 5759 5760 5761 5762 5762 5764 5763 5761
5709 5709 5711 5711 5710 5710 5710 5709 5708 5708 5708 5709 5709 5707 5707 5712 5715 5717 5719 5721 5722 5724 5726 5728 5731 5734 5736 5737 5738 5741 5744 5747 5748 5751 5753 5754 5755 5756 5757 5757 5757 5755 5755
5706 5706 5707 5709 5709 5709 5709 5709 5709 5710 5709 5709 5709 5708 5706 5708 5712 5714 5715 5719 5719 5717 5720 5723 5726 5728 5730 5731 5734 5737 5738 5743 5745 5746 5747 5749 5750 5750 5751 5751 5750 5747 5746
5702 5703 5705 5705 5706 5707 5708 5708 5707 5708 5709 5710 5709 5709 5710 5710 5713 5713 5714 5715 5716 5716 5717 5718 5720 5722 5725 5727 5730 5732 5736 5738 5740 5741 5742 5743 5744 5743 5742 5742 5740 5741 5739
5699 5700 5702 5703 5703 5705 5706 5706 5707 5707 5707 5708 5708 5708 5708 5709 5710 5712 5714 5713 5715 5715 5716 5717 5718 5719 5722 5724 5726 5729 5732 5733 5735 5736 5736 5736 5736 5736 5734 5734 5734 5732 5730
5695 5696 5698 5700 5701 5701 5702 5703 5703 5704 5705 5705 5706 5707 5707 5708 5708 5709 5710 5712 5712 5713 5714 5715 5716 5717 5718 5720 5722 5724 5725 5725 5727 5728 5729 5729 5729 5727 5728 5727 5724 5722 5719
5691 5692 5694 5696 5697 5698 5699 5699 5699 5700 5701 5702 5703 5703 5704 5705 5705 5705 5706 5706 5708 5709 5710 5711 5712 5713 5714 5716 5718 5719 5719 5719 5720 5721 5721 5720 5721 5720 5718 5717 5714 5712 5709
5686 5688 5689 5690 5692 5694 5695 5696 5696 5696 5696 5697 5699 5700 5700 5701 5702 5701 5702 5704 5704 5706 5706 5706 5707 5708 5709 5709 5710 5711 5712 5713 5713 5713 5712 5713 5711 5708 5706 5706 5703 5699 5698
5681 5683 5684 5685 5687 5687 5689 5691 5692 5692 5693 5694 5694 5695 5697 5697 5697 5697 5697 5698 5699 5700 5700 5700 5701 5701 5701 5701 5702 5704 5705 5704 5704 5703 5702 5702 5700 5697 5695 5692 5691 5687 5685
5673 5676 5678 5680 5681 5682 5684 5685 5686 5687 5688 5688 5690 5691 5691 5690 5691 5691 5692 5693 5693 5693 5692 5693 5694 5694 5695 5695 5696 5695 5695 5694 5693 5693 5693 5691 5689 5687 5684 5681 5680 5678 5676
5669 5669 5671 5672 5674 5677 5678 5680 5680 5681 5681 5682 5683 5685 5684 5684 5685 5685 5685 5684 5683 5684 5684 5685 5686 5686 5685 5685 5686 5685 5684 5684 5683 5682 5681 5680 5679 5677 5674 5671 5670 5667 5664
5659 5659 5661 5663 5666 5668 5670 5671 5673 5674 5674 5676 5678 5676 5677 5677 5677 5677 5677 5676 5677 5677 5675 5675 5675 5675 5676 5677 5677 5675 5673 5671 5670 5670 5670 5669 5666 5664 5661 5659 5657 5654 5652
5650 5654 5657 5658 5659 5661 5662 5664 5665 5664 5666 5668 5669 5669 5669 5670 5669 5668 5668 5669 5669 5668 5669 5669 5668 5667 5666 5666 5666 5665 5661 5660 5659 5658 5656 5652 5653 5651 5648 5647 5644 5642 5639
5641 5642 5645 5649 5651 5652 5654 5656 5657 5657 5658 5659 5659 5659 5660 5660 5660 5660 5659 5659 5659 5660 5659 5659 5658 5657 5657 5656 5655 5653 5649 5646 5645 5644 5643 5641 5640 5637 5635 5633 5631 5628 5625
5633 5634 5636 5639 5641 5643 5645 5646 5648 5648 5649 5651 5650 5651 5650 5650 5650 5650 5651 5651 5650 5650 5649 5648 5647 5645 5644 5643 5642 5641 5638 5636 5634 5632 5631 5629 5627 5624 5622 5619 5616 5614 5609
5627 5629 5630 5630 5631 5633 5634 5635 5636 5637 5637 5638 5639 5640 5639 5640 5640 5641 5640 5639 5639 5639 5640 5638 5636 5634 5632 5630 5629 5627 5626 5623 5621 5620 5618 5616 5613 5610 5607 5603 5600 5597 5594
5616 5619 5620 5622 5623 5623 5623 5624 5625 5626 5627 5626 5626 5628 5628 5629 5629 5629 5628 5628 5627 5628 5626 5625 5624 5622 5620 5619 5617 5614 5611 5610 5608 5605 5603 5600 5598 5594 5591 5587 5583 5581 5576
5606 5608 5608 5610 5612 5613 5613 5613 5614 5615 5615 5615 5614 5615 5616 5617 5618 5617 5617 5617 5616 5613 5612 5610 5607 5607 5607 5606 5604 5600 5596 5594 5591 5589 5586 5584 5580 5576 5573 5570 5569 5562 5557
5593 5594 5595 5596 5598 5599 5600 5601 5602 5601 5601 5602 5603 5603 5603 5603 5603 5603 5602 5602 5601 5599 5597 5594 5594 5593 5592 5590 5587 5584 5582 5579 5576 5573 5570 5567 5563 5558 5554 5550 5547 5544 5540
5579 5579 5580 5581 5582 5583 5585 5586 5587 5587 5587 5587 5588 5589 5589 5589 5588 5588 5587 5586 5585 5584 5581 5580 5579 5578 5576 5574 5570 5567 5564 5563 5560 5557 5553 5549 5545 5540 5534 5534 5531 5525 5521
5569 5568 5568 5567 5567 5567 5568 5570 5571 5572 5572 5573 5573 5572 5573 5573 5572 5572 5571 5570 5568 5568 5566 5565 5563 5561 5559 5556 5552 5548 5546 5544 5541 5539 5535 5532 5529 5525 5520 5514 5510 5505 5499
5557 5556 5555 5554 5554 5554 5554 5554 5554 5556 5555 5555 5555 5555 5554 5554 5555 5554 5554 5553 5552 5550 5548 5547 5545 5543 5539 5536 5533 5530 5526 5524 5521 5519 5515 5511 5508 5504 5499 5494 5489 5484 5478
Wind_Speed
15 16 14 11 11 13 11 10 12 12 11 17 12 17 19 23 31 32 30 30 27 29 26 27 27 33 53 43 36 35 31 33 33 27 27 26 28 29 29 28 30 28 26
10 13 13 10 9 9 6 5 11 9 12 13 16 18 20 16 18 25 30 29 29 27 22 16 15 26 31 31 31 29 28 28 27 26 20 19 24 28 26 25 26 26 27
9 11 11 8 6 8 7 2 6 10 13 14 13 14 15 15 17 17 16 18 21 21 26 18 20 23 24 25 26 27 26 18 19 20 14 12 17 19 20 23 26 29 28
5 10 11 8 5 4 5 5 3 3 11 16 18 17 21 22 22 24 20 21 17 19 23 24 23 26 26 27 28 28 26 18 19 14 18 16 17 21 20 22 23 25 26
4 5 9 11 6 2 2 3 2 2 3 4 12 21 25 25 23 22 23 23 20 21 25 25 29 24 27 28 29 24 19 21 21 21 22 21 20 23 24 25 24 27 29
8 7 7 7 7 5 2 2 3 1 2 5 8 14 25 27 25 25 22 25 27 26 27 26 25 28 28 27 26 23 21 23 24 23 23 22 23 22 25 29 30 30 31
8 11 9 6 6 3 2 0 2 4 4 3 3 3 7 20 23 26 26 20 18 24 33 31 31 28 33 28 29 26 25 26 25 22 23 25 27 29 33 32 32 35 38
16 14 12 7 6 5 2 2 2 2 4 6 6 5 5 5 8 10 13 13 10 8 11 20 24 23 25 24 25 25 25 29 26 29 26 30 32 34 36 38 40 41 41
17 15 12 10 8 6 6 7 7 5 4 6 7 7 8 9 11 12 13 14 13 13 12 12 13 17 19 21 22 22 25 27 25 27 29 33 34 36 36 37 40 45 49
17 18 16 14 12 11 8 10 11 11 11 9 8 9 11 10 11 13 14 15 14 14 14 14 16 19 19 20 21 21 24 25 26 28 31 33 36 38 41 44 47 47 52
21 21 21 19 16 14 14 13 13 11 9 10 8 8 10 11 13 16 17 16 16 16 17 19 21 22 23 24 26 25 26 29 31 33 36 39 42 44 47 48 50 52 54
26 24 23 23 22 22 19 19 17 15 14 13 13 11 10 11 14 17 20 20 19 21 24 22 25 24 25 28 28 28 30 33 35 36 39 43 45 46 46 55 59 59 53
29 28 26 25 26 25 23 21 20 19 17 16 18 18 17 17 18 19 19 21 21 21 21 20 18 23 25 27 29 32 33 34 38 36 38 38 42 44 49 58 62 47 42
33 32 30 29 29 27 26 24 22 25 24 22 21 22 24 24 26 25 25 25 25 25 24 24 24 26 27 29 29 30 32 33 35 37 38 39 41 42 42 41 46 45 44
34 36 35 34 32 32 30 28 27 29 30 29 28 25 25 27 26 28 29 30 30 29 30 30 29 30 32 31 31 34 37 39 39 44 46 43 44 47 45 44 46 47 52
40 44 41 38 35 35 34 34 32 32 35 34 31 32 31 31 32 33 32 33 34 33 32 32 33 33 34 35 36 39 42 44 45 46 46 47 52 49 49 49 49 47 57
42 42 43 42 39 38 39 38 37 38 37 36 34 33 34 34 33 34 36 35 34 35 34 34 36 38 38 37 38 40 44 46 47 46 46 48 48 47 47 53 51 53 56
29 45 47 45 45 44 44 43 43 43 42 42 41 41 39 36 36 34 34 35 35 36 38 40 41 42 42 43 42 42 46 48 47 47 46 48 51 50 50 51 55 58 60
23 29 47 46 46 45 44 44 45 46 47 46 45 47 44 44 42 40 36 37 38 39 38 39 40 43 46 48 48 48 49 50 51 52 52 52 53 55 56 58 59 59 58
27 27 29 33 50 49 44 44 46 45 49 49 51 51 46 47 44 44 45 45 40 39 38 40 42 44 44 47 50 54 55 56 55 56 57 58 59 60 60 61 62 62 63
36 35 33 34 36 36 41 44 44 46 47 51 52 53 55 53 49 48 49 50 51 49 50 47 49 50 47 48 49 51 56 58 59 59 60 61 60 62 63 65 64 66 69
42 40 39 39 40 39 41 42 45 46 49 45 48 50 53 54 53 57 56 53 55 57 59 64 66 60 60 57 53 53 52 54 57 59 60 62 64 65 67 68 65 73 72
47 48 48 47 44 43 43 44 46 48 49 48 49 50 53 52 55 60 58 60 62 61 65 68 65 63 66 59 63 59 52 54 57 59 63 65 67 68 67 68 70 71 68
38 38 38 41 49 50 46 46 49 50 50 48 50 53 55 58 60 64 66 70 69 66 69 72 67 69 71 69 69 63 54 56 58 60 62 61 59 72 58 57 62 64 71
32 33 36 39 39 43 50 51 51 54 56 55 56 56 59 59 62 63 64 67 66 67 67 69 71 74 75 71 75 70 65 62 60 61 63 62 63 67 72 75 76 78 81
35 36 37 40 40 42 45 49 52 53 51 57 59 59 61 61 63 64 65 66 65 67 69 72 72 73 71 75 77 71 67 67 65 71 71 74 74 75 74 77 77 80 82
Wind_Direction
290 305 304 320 325 328 304 234 223 229 243 213 208 210 213 217 218 224 230 227 234 234 237 241 237 249 231 231 239 240 247 253 254 259 267 269 264 258 252 249 252 242 247
290 300 301 323 330 339 322 229 220 234 208 223 235 222 198 197 206 214 217 221 225 231 230 220 232 231 232 234 239 245 244 252 260 270 272 267 262 256 253 245 252 257 258
289 296 302 321 342 345 344 297 243 228 224 232 238 233 238 239 234 217 229 224 221 224 218 232 229 234 234 236 241 250 257 255 267 269 240 242 248 263 259 257 260 261 267
278 305 305 315 331 339 0 6 346 254 235 235 243 243 231 225 228 231 246 215 229 242 234 240 243 239 241 243 250 258 256 243 239 251 246 241 244 250 256 263 267 267 271
232 305 312 320 318 288 310 321 6 0 321 283 259 242 234 241 247 244 238 245 245 257 248 247 246 246 243 245 250 255 259 248 226 230 250 261 266 268 271 274 273 277 281
243 258 284 300 320 313 251 230 283 282 338 303 298 253 234 234 245 254 244 244 247 262 249 248 248 246 253 249 243 231 226 233 223 233 244 253 260 266 273 275 274 271 267
256 269 256 269 277 307 306 256 211 269 253 251 292 321 216 224 239 252 244 249 264 256 247 247 249 253 250 249 239 228 225 228 230 238 248 258 264 269 271 273 271 274 282
254 262 256 258 246 252 263 281 291 279 291 269 245 228 216 201 213 223 236 244 253 260 244 240 243 245 246 251 247 244 241 233 240 243 250 262 266 268 273 274 270 274 278
247 252 254 258 244 244 275 279 274 267 276 288 277 253 235 223 220 221 234 244 240 236 237 240 242 246 242 244 244 243 245 246 252 255 258 265 271 272 270 269 273 277 280
245 254 256 258 262 250 271 272 274 269 268 261 260 266 266 258 248 242 234 232 238 242 245 253 255 244 242 241 244 245 250 254 257 258 262 268 273 272 271 272 274 276 278
240 248 258 258 261 268 267 274 272 259 258 271 272 261 260 271 270 262 256 255 249 245 249 254 251 244 243 249 254 254 257 261 260 262 265 270 271 271 272 274 274 282 277
241 245 250 253 256 264 270 273 268 256 255 260 261 271 267 259 259 263 259 259 262 260 262 265 253 249 253 262 262 258 261 261 264 266 268 268 272 275 276 290 286 287 276
240 246 248 252 254 259 258 271 266 256 252 258 270 270 269 275 269 263 263 265 267 271 271 270 261 253 260 256 252 255 258 265 265 266 271 270 275 280 282 276 279 282 274
238 243 244 250 252 254 259 264 260 256 257 266 272 280 279 275 273 271 271 271 268 267 268 266 262 262 267 267 266 267 264 268 268 271 272 278 279 283 282 276 277 278 276
238 239 245 250 254 254 254 262 260 257 261 269 279 278 274 273 278 277 275 273 273 274 273 271 269 268 269 269 269 270 270 271 269 278 276 274 277 277 277 277 277 277 275
233 237 239 239 243 249 253 259 262 263 262 266 272 275 275 279 280 274 271 271 272 272 271 273 275 274 274 274 273 272 271 270 268 268 272 276 274 280 276 276 275 278 275
242 241 241 242 244 246 252 258 262 266 270 274 273 272 272 276 278 276 275 269 265 265 268 271 274 272 270 271 271 271 272 272 272 272 271 276 274 273 275 279 279 280 279
254 238 238 240 243 245 249 254 260 265 267 270 273 275 273 276 275 279 277 276 276 276 275 274 274 276 276 275 272 269 270 273 274 275 273 272 274 276 274 274 276 277 281
258 252 240 240 243 248 252 255 258 261 265 263 264 263 272 274 274 277 271 268 270 275 278 278 278 275 274 276 277 275 273 273 275 277 278 276 276 275 275 277 280 281 279
258 250 255 256 248 246 244 246 250 254 259 261 259 258 261 264 265 270 272 274 274 270 274 277 282 276 272 272 272 273 274 275 276 276 278 278 278 278 279 281 281 281 283
266 263 256 252 257 257 258 246 249 254 257 260 258 255 258 260 262 263 265 268 271 275 276 274 274 275 272 273 275 277 275 274 275 276 276 277 279 279 279 280 281 279 280
270 268 268 267 257 254 256 254 252 250 256 267 262 250 252 256 255 259 262 262 265 268 270 273 271 274 280 278 277 281 278 273 273 275 277 277 277 276 277 278 276 278 279
273 272 268 266 261 259 255 257 257 252 250 255 261 260 255 252 253 256 257 258 263 266 267 269 274 271 277 277 274 275 275 272 270 272 273 275 279 276 275 276 278 276 277
276 274 272 265 259 260 259 256 256 255 253 253 255 255 257 258 258 260 262 263 260 263 268 268 272 273 274 278 278 272 271 274 276 275 279 278 279 279 271 272 274 267 274
276 275 272 270 268 264 258 258 259 257 257 255 253 255 256 259 258 260 261 264 262 263 268 269 271 275 276 277 281 277 277 275 277 276 280 278 277 276 278 279 279 279 280
297 296 287 276 270 268 260 254 256 259 265 261 262 260 260 260 261 262 262 263 265 265 264 266 270 272 274 277 277 278 272 275 277 277 275 274 274 274 275 276 278 279 281